Location: Narrabri
(30.3170°S, 149.7830°E)
Time: 01:04:54
(UTC+11:00)

Hubble Space Telescope - Visible Passes

Search period start: 22 October 2017 00:00
Search period end: 01 November 2017 00:00
Orbit: 537 x 541 km, 28.5° (Epoch: 20 October)

Date Brightness Start Highest point End Pass type
(mag) Time Alt. Az. Time Alt. Az. Time Alt. Az.
22 Oct 3.4 05:36:53 10° N 05:38:09 11° NNE 05:39:25 10° NE visible
23 Oct 3.2 05:25:33 10° N 05:27:52 15° NNE 05:30:12 10° ENE visible
24 Oct 2.8 05:14:41 10° NNW 05:17:36 18° NNE 05:20:31 10° ENE visible
25 Oct 2.5 05:05:04 15° NNW 05:07:20 23° NNE 05:10:39 10° ENE visible
26 Oct 2.1 04:55:26 21° NNW 04:57:05 28° NNE 05:00:41 10° E visible
27 Oct 1.8 04:45:45 28° NNW 04:46:51 33° NNE 04:50:38 10° E visible
28 Oct 1.4 04:36:02 37° N 04:36:38 40° NNE 04:40:33 10° E visible
29 Oct 1.2 04:26:18 46° N 04:26:24 46° NNE 04:30:25 10° E visible
30 Oct 1.2 04:16:33 51° NNE 04:16:33 51° NNE 04:20:16 10° E visible
31 Oct 1.4 04:06:49 48° NE 04:06:49 48° NE 04:10:07 10° E visible
